Volver al catálogo

DGS 2-01

ActivoCienciaSSO
NORAD 65260·PAYLOAD·🇨🇳 China
Este nombre de satélite aún no ha sido confirmado por fuentes oficiales.

Lanzado Aug 19, 2025 desde Jiuquan Satellite Launch Center

Loading…

Próximos Pases (próximas 24 horas)

TLE

ActualizadoSource: Space-Track

Época: Sep 14, 2026, 21:56 UTC

1 65260U 25180B   26257.91454493  .00003282  00000-0  17388-3 0  9991
2 65260  97.5389  24.4017 0014632  19.1508 341.0272 15.16026195 59256

Sigue DGS 2-01 en tiempo real con AllMySat

Download on the App Store